[[{"header":{"parameterUnit":"m.s-1","parameterCategory":1,"la1":30.2991,"la2":30.254,"lo1":-89.0895,"lo2":-89.0444,"dy":0.0017,"dx":0.0017,"nx":28,"ny":28,"refTime":"2024-12-12T09:00:00:Z","depth":0,"parameterNumber":2,"parameterNumberName":"U-component_of_WINDS"},"data":[0,0,0,0,0,0,0,0,0,0,0,0,0,0,0,0,0,0,0,0,0,0,0,0,0,0,0,0,0,0,0,0,0,0,0,0,0,0,0,0,0,0,0,0,0,0,0,0,0,0,0,0,0,0,0,0,0,0,-4.2829,-4.2829,0,-4.2845,-4.2845,-4.2845,-4.2735,-4.2732,-4.2729,-4.2726,-4.2746,-4.2749,-4.2752,0,0,0,0,0,0,0,0,0,0,0,0,0,-4.2707,-4.271,-4.2829,-4.2829,-4.2829,-4.2845,-4.2845,-4.2845,-4.2736,-4.2732,-4.2728,-4.2725,-4.2745,-4.2749,-4.2753,0,0,0,0,0,0,0,0,0,0,0,0,0,-4.2745,-4.2711,-4.2829,-4.2776,-4.2772,-4.2845,-4.2845,-4.2845,-4.2737,-4.2732,-4.2727,-4.2723,-4.2743,-4.2748,-4.2753,-4.2878,0,0,-4.2769,-4.2771,0,0,0,0,0,0,0,0,-4.2743,-4.275,-4.2784,-4.278,-4.2775,-4.2783,-4.2809,-4.2856,-4.2738,-4.275,-4.2726,-4.2721,-4.2762,-4.2765,-4.2779,-4.2879,-4.288,-4.2769,-4.2772,-4.2775,-4.2776,0,0,0,0,0,0,0,-4.2741,-4.2749,-4.2835,-4.2785,-4.2779,-4.2753,-4.2753,-4.2818,-4.2782,-4.2749,-4.2741,-4.2744,-4.2759,-4.2774,-4.2778,-4.288,-4.2769,-4.2774,-4.2777,-4.2779,-4.3085,-4.309,0,0,0,0,0,0,-4.2745,-4.2747,-4.2835,-4.2836,-4.2747,-4.2759,-4.2759,-4.2785,-4.2781,-4.2776,-4.2748,-4.2739,-4.2768,-4.2773,-4.2779,-4.2926,-4.2775,-4.2779,-4.2782,-4.308,-4.3086,-4.3092,0,0,0,0,0,0,-4.2743,-4.2754,-4.2834,-4.2789,-4.2797,-4.2766,-4.2796,-4.2788,-4.2803,-4.278,-4.2774,-4.277,-4.2764,-4.2771,-4.2854,-4.2925,-4.2782,-4.2786,-4.3074,-4.3082,-4.3089,-4.3221,0,0,0,0,0,0,-4.274,-4.2753,-4.28,-4.2791,-4.28,-4.2909,-4.28,-4.2792,-4.2812,-4.28,-4.2799,-4.2795,-4.2761,-4.2847,-4.2859,-4.2929,-4.279,-4.3068,-4.3078,-4.3087,-4.321,-4.3232,-4.3251,0,0,0,0,0,-4.2736,-4.2837,-4.2803,-4.2814,-4.2857,-4.2913,-4.2918,-4.2877,-4.2818,-4.2865,-4.2851,-4.2795,-4.2915,-4.2857,-4.2869,-4.2942,-4.3063,-4.3075,-4.3086,-4.3201,-4.3228,-4.325,0,0,0,0,0,0,-4.2855,-4.2835,-4.2797,-4.2898,-4.2908,-4.2894,-4.2952,-4.2906,-4.2934,-4.2922,-4.287,-4.2871,-4.2963,-4.296,-4.2896,-4.3063,-4.2979,-4.2994,-4.3062,-4.3087,-4.3107,-4.3107,-4.2795,0,0,0,0,0,-4.2893,-4.2939,-4.2919,-4.301,-4.3017,-4.2984,-4.3007,-4.2974,-4.2983,-4.2987,-4.2978,-4.299,-4.303,-4.3058,-4.3094,-4.3208,-4.3208,-4.3265,-4.3285,-4.3302,-4.3316,-4.3378,-4.3403,-4.3129,-4.3129,-4.3129,0,0,-4.2973,-4.2967,-4.2999,-4.3034,-4.3038,-4.3088,-4.2989,-4.3045,-4.3083,-4.2996,-4.3074,-4.3068,-4.3078,-4.3177,-4.3221,-4.3178,-4.3391,-4.3316,-4.333,-4.3335,-4.3392,-4.3418,-4.3441,-4.3137,-4.3136,-4.3134,0,0,-4.3144,-4.3143,-4.322,-4.3226,-4.3233,-4.321,-4.3229,-4.3222,-4.3215,-4.3292,-4.3228,-4.3272,-4.3342,-4.3352,-4.3367,-4.3542,-4.3492,-4.3555,-4.3662,-4.3723,-4.3744,-4.3763,-4.3827,-4.3851,-4.3568,-4.3568,-4.3569,0,-4.3242,-4.3314,-4.3265,-4.3327,-4.3344,-4.3267,-4.3345,-4.3353,-4.3373,-4.3387,-4.3339,-4.3426,-4.3427,-4.3529,-4.3571,-4.3585,-4.3606,-4.3555,-4.3745,-4.3763,-4.378,-4.3841,-4.3865,-4.3576,-4.3575,-4.3574,-4.3574,0,-4.3435,-4.3486,-4.3547,-4.3567,-4.3591,-4.3661,-4.3624,-4.3655,-4.362,-4.3603,-4.3683,-4.3681,-4.3716,-4.3737,-4.3704,-4.3835,-4.3809,-4.3753,-4.3668,-4.3815,-4.3871,-4.3894,-4.3587,-4.3584,-4.3582,-4.358,0,0,-4.3682,-4.3674,-4.3698,-4.3706,-4.3708,-4.3747,-4.3814,-4.3847,-4.3875,-4.3891,-4.3947,-4.4008,-4.3957,-4.3973,-4.394,-4.3994,-4.4135,-4.3932,-4.3931,-4.3971,-4.4281,-4.4324,-4.4352,-4.4101,-4.4105,-4.4108,-4.4281,0,-4.385,-4.3962,-4.3921,-4.4037,-4.4084,-4.4011,-4.407,-4.4078,-4.4064,-4.4103,-4.4088,-4.4133,-4.4061,-4.4071,-4.412,-4.4107,-4.4196,-4.4094,-4.4154,-4.4157,-4.4156,-4.4381,-4.4426,-4.4589,-4.4302,-4.4306,-4.4309,0,-4.4061,-4.4085,-4.4206,-4.42,-4.4219,-4.4272,-4.4299,-4.4337,-4.4345,-4.4331,-4.435,-4.4306,-4.4372,-4.4286,-4.4377,-4.4308,-4.4331,-4.4328,-4.4333,-4.4339,-4.4243,-4.4394,-4.464,-4.4665,-4.4342,-4.434,-4.4337,0,-4.4232,-4.4294,-4.4374,-4.4384,-4.4379,-4.4418,-4.4419,-4.4422,-4.4445,-4.4469,-4.4484,-4.4516,-4.4535,-4.4561,-4.4527,-4.4467,-4.4625,-4.4535,-4.4617,-4.4618,-4.4655,-4.4653,-4.4909,-4.4666,-4.4666,-4.4666,-4.4665,0,-4.4425,-4.4502,-4.4451,-4.4501,-4.4586,-4.4537,-4.4623,-4.4615,-4.4619,-4.4667,-4.4606,-4.4653,-4.4604,-4.4646,-4.462,-4.4701,-4.471,-4.4702,-4.4694,-4.4708,-4.471,-4.4723,-4.4712,-4.4672,-4.4671,-4.4669,-4.4668,0,-4.4631,-4.4599,-4.4683,-4.4671,-4.467,-4.4734,-4.4724,-4.4771,-4.4752,-4.4814,-4.4825,-4.4797,-4.4844,-4.4812,-4.4859,-4.4842,-4.4949,-4.4924,-4.4946,-4.494,-4.5024,-4.5018,-4.53,-4.5335,-4.5068,-4.5071,-4.5073,0,-4.4757,-4.4814,-4.4809,-4.4836,-4.484,-4.4885,-4.4908,-4.4863,-4.4889,-4.4904,-4.4949,-4.499,-4.5021,-4.51,-4.5085,-4.5121,-4.5098,-4.5194,-4.5103,-4.5116,-4.5102,-4.51,-4.5106,-4.5214,-4.5217,-4.5219,-4.5221,0,-4.4985,-4.4966,-4.5001,-4.5031,-4.506,-4.5082,-4.5098,-4.5125,-4.5079,-4.5113,-4.5159,-4.5183,-4.5231,-4.5274,-4.5304,-4.5305,-4.5258,-4.525,-4.5271,-4.5287,-4.5298,-4.5295,-4.4998,-4.5244,-4.5242,-4.524,-4.5239,-4.5238,-4.5155,-4.5204,-4.5208,-4.5249,-4.5257,-4.5274,-4.5317,-4.5304,-4.5342,-4.5377,-4.5348,-4.5404,-4.5412,-4.5448,-4.5455,-4.55,-4.5461,-4.5491,-4.5499,-4.5508,-4.5521,-4.5289,-4.5505,-4.5504,-4.5503,-4.5503,-4.5502,0,-4.5382,-4.538,-4.5419,-4.5444,-4.5477,-4.5426,-4.5443,-4.5474,-4.5524,-4.5535,-4.5567,-4.5621,-4.5662,-4.565,-4.5687,-4.5725,-4.5704,-4.5737,-4.5735,-4.5736,-4.5552,-4.5531,-4.5753,-4.5753,-4.5753,-4.5753,-4.5753,-4.5753,-4.5503,-4.5583,-4.5565,-4.5648,-4.5646,-4.5701,-4.5715,-4.5731,-4.5739,-4.5803,-4.5836,-4.5827,-4.583,-4.5866,-4.5903,-4.5898,-4.5916,-4.5957,-4.5945,-4.5774,-4.5749,-4.5725,-4.5705,-4.596,-4.5961,-4.6125,-4.6126,-4.6127]},{"header":{"parameterUnit":"m.s-1","parameterCategory":1,"la1":30.2991,"la2":30.254,"lo1":-89.0895,"lo2":-89.0444,"dy":0.0017,"dx":0.0017,"nx":28,"ny":28,"refTime":"2024-12-12T09:00:00:Z","depth":0,"parameterNumber":3,"parameterNumberName":"V-component_of_WINDS"},"data":[0,0,0,0,0,0,0,0,0,0,0,0,0,0,0,0,0,0,0,0,0,0,0,0,0,0,0,0,0,0,0,0,0,0,0,0,0,0,0,0,0,0,0,0,0,0,0,0,0,0,0,0,0,0,0,0,0,0,-0.7391,-0.7391,0,-0.7421,-0.7421,-0.7422,-0.7403,-0.7402,-0.7401,-0.74,-0.7432,-0.7434,-0.7436,0,0,0,0,0,0,0,0,0,0,0,0,0,-0.7318,-0.7319,-0.7391,-0.7391,-0.7392,-0.7421,-0.7421,-0.7422,-0.7403,-0.7402,-0.7401,-0.74,-0.7432,-0.7434,-0.7436,0,0,0,0,0,0,0,0,0,0,0,0,0,-0.7349,-0.732,-0.7391,-0.7386,-0.7386,-0.7421,-0.7421,-0.7422,-0.7403,-0.7402,-0.74,-0.7399,-0.7431,-0.7434,-0.7436,-0.7478,0,0,-0.7444,-0.7445,0,0,0,0,0,0,0,0,-0.7347,-0.7352,-0.7386,-0.7386,-0.7386,-0.7407,-0.7407,-0.7441,-0.7403,-0.7397,-0.74,-0.7399,-0.7425,-0.7428,-0.7437,-0.748,-0.7481,-0.7444,-0.7446,-0.7447,-0.7447,0,0,0,0,0,0,0,-0.7345,-0.735,-0.7403,-0.7387,-0.7387,-0.7382,-0.7385,-0.7414,-0.7418,-0.7397,-0.7396,-0.7399,-0.7425,-0.7434,-0.7437,-0.7482,-0.7444,-0.7446,-0.7448,-0.7449,-0.7561,-0.7562,0,0,0,0,0,0,-0.7343,-0.7349,-0.7402,-0.7404,-0.7363,-0.7385,-0.7388,-0.7401,-0.7418,-0.7419,-0.7401,-0.7398,-0.7431,-0.7434,-0.7438,-0.7489,-0.7447,-0.7449,-0.7451,-0.7559,-0.7561,-0.7563,0,0,0,0,0,0,-0.7342,-0.7348,-0.7401,-0.7376,-0.7382,-0.7387,-0.7403,-0.7403,-0.7412,-0.742,-0.7421,-0.7409,-0.743,-0.7435,-0.7468,-0.749,-0.745,-0.7453,-0.7557,-0.756,-0.7562,-0.759,0,0,0,0,0,0,-0.734,-0.7348,-0.7364,-0.7376,-0.7383,-0.743,-0.7404,-0.7404,-0.7416,-0.7414,-0.7429,-0.743,-0.7429,-0.7465,-0.7471,-0.7492,-0.7455,-0.7556,-0.7558,-0.7561,-0.7588,-0.7593,-0.7598,0,0,0,0,0,-0.7337,-0.7371,-0.7365,-0.7371,-0.7404,-0.7432,-0.7436,-0.7434,-0.7418,-0.7435,-0.7439,-0.7429,-0.7486,-0.7468,-0.7475,-0.7498,-0.7554,-0.7558,-0.7561,-0.7585,-0.7592,-0.7598,0,0,0,0,0,0,-0.7362,-0.7373,-0.7366,-0.7405,-0.7417,-0.7428,-0.7449,-0.7441,-0.7459,-0.7456,-0.7452,-0.7456,-0.7491,-0.7497,-0.7478,-0.7539,-0.7518,-0.7523,-0.7534,-0.7541,-0.7546,-0.7544,-0.7457,0,0,0,0,0,-0.7372,-0.7393,-0.7402,-0.7435,-0.7442,-0.7444,-0.7456,-0.7453,-0.7466,-0.7472,-0.7479,-0.7492,-0.7513,-0.7527,-0.7546,-0.7588,-0.7591,-0.7606,-0.7612,-0.7616,-0.7621,-0.7643,-0.765,-0.7573,-0.7573,-0.7573,0,0,-0.7393,-0.7401,-0.7415,-0.744,-0.745,-0.7472,-0.7449,-0.7474,-0.749,-0.7476,-0.7508,-0.7513,-0.7528,-0.7566,-0.7582,-0.7572,-0.7642,-0.762,-0.7624,-0.7626,-0.7647,-0.7654,-0.7661,-0.7575,-0.7575,-0.7575,0,0,-0.7443,-0.7451,-0.748,-0.749,-0.7504,-0.7505,-0.7511,-0.7523,-0.7526,-0.7558,-0.7547,-0.7567,-0.7603,-0.7614,-0.7624,-0.7676,-0.7667,-0.7682,-0.771,-0.7732,-0.7738,-0.7743,-0.7762,-0.7769,-0.7686,-0.7686,-0.7686,0,-0.7468,-0.7501,-0.7496,-0.7522,-0.7533,-0.7519,-0.7548,-0.7558,-0.7578,-0.7586,-0.7573,-0.7617,-0.7626,-0.7666,-0.7679,-0.7687,-0.7695,-0.7681,-0.7737,-0.7743,-0.7748,-0.7766,-0.7773,-0.7688,-0.7688,-0.7688,-0.7688,0,-0.7531,-0.7554,-0.7575,-0.7594,-0.7607,-0.7635,-0.7634,-0.7648,-0.7643,-0.7646,-0.7678,-0.7688,-0.7709,-0.7718,-0.7714,-0.7757,-0.775,-0.7738,-0.7716,-0.7757,-0.7774,-0.7781,-0.7691,-0.769,-0.769,-0.7689,0,0,-0.7599,-0.7614,-0.7622,-0.763,-0.7643,-0.7661,-0.7687,-0.7707,-0.7719,-0.7733,-0.7755,-0.7785,-0.7773,-0.7784,-0.7781,-0.78,-0.7841,-0.7785,-0.7785,-0.7796,-0.7889,-0.7899,-0.7908,-0.7834,-0.7836,-0.7837,-0.7888,0,-0.7651,-0.7696,-0.7692,-0.7735,-0.7756,-0.7743,-0.7765,-0.7776,-0.7779,-0.7797,-0.78,-0.7821,-0.7803,-0.781,-0.7828,-0.7832,-0.786,-0.7828,-0.7856,-0.7857,-0.7854,-0.7916,-0.7928,-0.7976,-0.7895,-0.7896,-0.7897,0,-0.7717,-0.7732,-0.7778,-0.7787,-0.7796,-0.7816,-0.7834,-0.7851,-0.7863,-0.7863,-0.7875,-0.7868,-0.7895,-0.7871,-0.7908,-0.7886,-0.7897,-0.79,-0.7902,-0.7906,-0.788,-0.7923,-0.7991,-0.7999,-0.7907,-0.7906,-0.7906,0,-0.7764,-0.7795,-0.7826,-0.7833,-0.7845,-0.786,-0.7865,-0.7875,-0.7887,-0.7902,-0.791,-0.7928,-0.7938,-0.7952,-0.7951,-0.7934,-0.7988,-0.7964,-0.7989,-0.799,-0.8003,-0.8002,-0.8075,-0.8008,-0.8008,-0.8007,-0.8007,0,-0.7822,-0.7851,-0.7847,-0.7866,-0.7898,-0.7892,-0.7923,-0.7927,-0.7936,-0.7955,-0.7944,-0.7963,-0.7959,-0.7978,-0.7976,-0.8007,-0.8011,-0.8013,-0.8012,-0.8015,-0.8015,-0.8023,-0.802,-0.8009,-0.8009,-0.8009,-0.8008,0,-0.788,-0.7879,-0.7912,-0.7919,-0.7922,-0.7945,-0.7951,-0.797,-0.797,-0.7995,-0.8001,-0.8002,-0.8024,-0.8023,-0.8047,-0.8046,-0.8084,-0.8079,-0.808,-0.8079,-0.8105,-0.8103,-0.8186,-0.8197,-0.8122,-0.8123,-0.8123,0,-0.7918,-0.794,-0.7949,-0.7961,-0.7968,-0.7988,-0.7999,-0.7994,-0.8007,-0.8021,-0.8037,-0.8057,-0.8073,-0.8108,-0.8111,-0.813,-0.8126,-0.8154,-0.8129,-0.813,-0.8127,-0.8127,-0.8129,-0.8159,-0.816,-0.8161,-0.8161,0,-0.7986,-0.7984,-0.8001,-0.8018,-0.8032,-0.8045,-0.8057,-0.8067,-0.8063,-0.8078,-0.8099,-0.8112,-0.8136,-0.8156,-0.8173,-0.8179,-0.817,-0.8169,-0.8176,-0.8179,-0.8179,-0.818,-0.8095,-0.8167,-0.8167,-0.8166,-0.8166,-0.8166,-0.8036,-0.8054,-0.8064,-0.8083,-0.8091,-0.8102,-0.8119,-0.8121,-0.8139,-0.8158,-0.8153,-0.8177,-0.8188,-0.821,-0.8217,-0.8236,-0.8226,-0.8236,-0.8239,-0.8242,-0.8245,-0.8175,-0.8239,-0.8239,-0.8239,-0.8238,-0.8238,0,-0.8104,-0.8109,-0.8127,-0.8143,-0.8158,-0.8147,-0.8159,-0.8172,-0.8193,-0.8203,-0.8219,-0.8243,-0.8262,-0.8266,-0.8285,-0.8299,-0.8295,-0.8304,-0.8304,-0.8305,-0.8252,-0.8245,-0.8307,-0.8307,-0.8307,-0.8307,-0.8307,-0.8307,-0.8142,-0.8172,-0.8171,-0.8205,-0.8209,-0.8232,-0.824,-0.825,-0.8258,-0.8285,-0.8301,-0.8303,-0.8311,-0.8329,-0.8346,-0.8347,-0.8355,-0.8366,-0.8365,-0.8316,-0.8309,-0.8302,-0.8295,-0.8367,-0.8367,-0.8416,-0.8417,-0.8417]}]]